Terminal Aerodrome Forecast
Issued by NWS

Home | Current Version | Previous Version | Text Only | Print | Product List | Glossary On
Versions: 1 2 3 4 5 6 7 8 9 10 11 12 13 14 15 16 17 18 19 20 21 22 23 24 25 26 27 28 29
000
FTUS41 KCTP 180546
TAFJST
TAF
KJST 180546Z 1806/1906 14010KT P6SM SKC
     FM180800 16010G17KT P6SM SCT040
     FM181200 21009G15KT P6SM SCT050
     FM190000 23006KT P6SM SKC=

USA.gov is the U.S. government's official web portal to all federal, state and local government web resources and services.